DMSP 5D-2 F13 DEB, 40498

Orbit data source: Space-Track

DMSP 5D-2 F13 DEB, 40498 is space debris in SSO originally from a launch on Fri, 24 Mar 1995 UTC launched from the Air Force Western Test Range (AFWTR). Debris objects in space refer to the collection of defunct objects orbiting the Earth. Examples of debris include non-operational satellites, rocket bodies, and fragments generated from explosions, collisions, or faulty payload assembly.

Loading next visibility...
Identifier
40498, 1995-015CM
Orbit
SSO
Country
Flag of USUS
Related business
Manufacturer
Unknown
Mission
Spacecraft
Bus & Motor
Unknown
Mass
Unknown
Launch date (UTC)
1995-03-24 (31 years ago)
Launch vehicle
Unknown
Launch site
Air Force Western Test Range (AFWTR)
Object type
Payload
Rocket body
Debris
Shape & HBR
Unknown shape, 0.1 m
Radar Cross Section
Small (<0.1 m²)

Expand to show TLE details & history
Last TLE update: 2 days ago

TLE from 2 days ago
0 DMSP 5D-2 F13 DEB
1 40498U 95015CM  25297.29843025  .00006142  00000-0  24037-2 0  9994
2 40498  98.9000 321.1983 0028534 218.2522 141.6635 14.29634265548492
Epoch: 2025-10-24T07:09Z
TLE epoch observation values (Epoch: 2025-10-24T07:09:44.373Z)
Latitude
-0.00004°
Longitude
-179.18192°
Altitude
811.951 km
Speed
7.439 km/s
True Right ascension
21h 24m 47s
True Declination
0° 00' 00"
Sunlit
Object was in daylight at epoch
Visualization orbit readout
Latitude
Unknown
Longitude
Unknown
Altitude
Unknown
Speed
Unknown
Apparent Right ascension
Unknown
Apparent Declination
Unknown
Sunlit
N/A
Visualization observer readout
Local Sidereal Time
14:53:48
Azimuth
Unknown
Elevation
Unknown
Doppler factor
Unknown
Orbital elements
Apogee altitude
810.562 km
Perigee altitude
769.655 km
Semi-major axis
7,168.246 km
Eccentricity
0.00285
Inclination
98.9°
RAAN
321.1983°
Arg. of periapsis
218.2522°
True anomaly
141.86575°
Mean anomaly
141.6635°
Eccentric anomaly
141.76468°
Mean motion
3.57622 °/min
Orbital period
100.67 mins
BSTAR
0.0024037
Loading maneuver chart data...
Computing Atmospheric mass density...

Documentation

Showing up to 5 results
|